WFO RAH Logo

WFO RAH Text Data

RWRRAH
NORTH CAROLINA WEATHER ROUNDUP
NATIONAL WEATHER SERVICE RALEIGH NC
200 AM EST FRI FEB 01 2008

NOTE: "FAIR" INDICATES FEW OR NO CLOUDS BELOW 12,000 FEET WITH NO
SIGNIFICANT WEATHER AND/OR OBSTRUCTIONS TO VISIBILITY.

NCZ001-053-055-056-065-067-010800-
WESTERN NORTH CAROLINA
  
CITY           SKY/WX    TMP DP  RH WIND       PRES   REMARKS
ASHEVILLE      MIX PCPN  32  31  96 CALM      30.12F FOG              
JEFFERSON      LGT SNOW  34  30  86 S5        30.11R WCI  30          
MORGANTON      LGT SNOW  34  32  93 N5        30.25F WCI  30          
HICKORY        RAIN      33  32  96 N5        30.20R FOG     WCI  29  
RUTHERFORDTON  RAIN      37  36  93 N9        30.19F WCI  31          
MOUNT AIRY     RAIN      34  27  75 NE5       30.17F WCI  30          
$$
 
NCZ021-022-025-041-071-084-088-010800-
CENTRAL NORTH CAROLINA
  
CITY           SKY/WX    TMP DP  RH WIND       PRES   REMARKS
CHARLOTTE      RAIN      37  36  96 NW6       30.19F FOG     WCI  32  
GREENSBORO     RAIN      36  32  85 NE14      30.15F FOG     WCI  27  
WINSTON-SALEM  RAIN      36  29  75 NE5       30.19S WCI  32          
RALEIGH-DURHAM LGT RAIN  38  30  73 NE9       30.20F WCI  31          
FORT BRAGG     MIX PCPN  41  36  81 E9        30.17F                  
FAYETTEVILLE   LGT RAIN  42  34  73 E12       30.17F                  
$$
 
NCZ011-015-027-028-043-044-047-080-103-010800-
NORTHEASTERN NORTH CAROLINA
  
CITY           SKY/WX    TMP DP  RH WIND       PRES   REMARKS
ROANOKE RAPIDS CLOUDY    40  31  70 VRB3      30.28F                  
ROCKY MT-WILSO LGT RAIN  38  32  79 NE12      30.23F WCI  30          
GREENVILLE     DRIZZLE   43  39  87 NE7       30.22F                  
WASHINGTON     DRIZZLE   46  39  76 N6        30.22F                  
ELIZABETH CITY CLOUDY    47  44  90 N8        30.28F                  
MANTEO         CLOUDY    55  54  94 E12       30.26F                  
CAPE HATTERAS  CLOUDY    56  54  93 E14       30.21F FOG              
$$
 
NCZ078-087-090-091-093-098-101-010800-
SOUTHEASTERN NORTH CAROLINA
  
CITY           SKY/WX    TMP DP  RH WIND       PRES   REMARKS
LUMBERTON      HVY RAIN  44  40  85 E8        30.16F FOG              
KINSTON        CLOUDY    41  36  81 NE8       30.21F                  
KENANSVILLE    CLOUDY    45  37  76 NE5       30.19F                  
NEW BERN       CLOUDY    46  44  93 N6        30.22F                  
CHERRY POINT   CLOUDY    51  46  83 NE6       30.21F                  
BEAUFORT       CLOUDY    52  50  93 N5        30.19F FOG              
JACKSONVILLE   LGT RAIN  47  46  97 NE5       30.19F                  
WILMINGTON     CLOUDY    46  43  87 NE3       30.17F                  
$$